Location: Unspecified
(43.4680°N, 87.1740°E)
Time: 05:23:49
(UTC+00:00)

NOSS 3-4 (C) - Pass Details

Date: 17 April 2021
Orbit: 873 x 1339 km, 63.4° (Epoch: 06 May)

Event Time Altitude Azimuth Distance (km) Brightness Sun altitude
Rises 13:17:52 0° 206° (SSW) 3,447 6.5 -4.5°
Reaches altitude 10° 13:20:18 10° 204° (SSW) 2,518 5.8 -4.9°
Maximum altitude 13:26:02 70° 122° (ESE) 958 3.3 -5.9°
Drops below altitude 10° 13:32:10 10° 40° (NE) 2,686 5.6 -6.9°
Sets 13:34:51 0° 39° (NE) 3,696 6.4 -7.4°
